"Period start","avg(HW err(1)/warn(2) (#))","avg(Visibility (m))","avg(Weather code (#))","avg(Precip intensity (mm/h))","min(HW err(1)/warn(2) (#))","max(HW err(1)/warn(2) (#))","std(HW err(1)/warn(2) (#))","med(HW err(1)/warn(2) (#))","min(Visibility (m))","max(Visibility (m))","std(Visibility (m))","med(Visibility (m))","min(Weather code (#))","max(Weather code (#))","std(Weather code (#))","med(Weather code (#))","min(Precip intensity (mm/h))","max(Precip intensity (mm/h))","std(Precip intensity (mm/h))","med(Precip intensity (mm/h))"
2013-09-29 00:00:00,2,49964,0,0.00,2,2,0,2,49808,50000,73,50000,0,0,0,0,0.00,0.00,0.00,0.00
2013-09-29 00:10:00,2,46650,0,0.00,2,2,0,2,34115,50000,5232,49253,0,0,0,0,0.00,0.00,0.00,0.00
2013-09-29 00:20:00,2,49901,0,0.00,2,2,0,2,49013,50000,296,50000,0,0,0,0,0.00,0.00,0.00,0.00
2013-09-29 00:30:00,2,49878,0,0.00,2,2,0,2,48779,50000,366,50000,0,0,0,0,0.00,0.00,0.00,0.00
2013-09-29 00:40:00,2,49556,0,0.00,2,2,0,2,46538,50000,1026,50000,0,0,0,0,0.00,0.00,0.00,0.00
2013-09-29 00:50:00,2,50000,0,0.00,2,2,0,2,50000,50000,0,50000,0,0,0,0,0.00,0.00,0.00,0.00
2013-09-29 01:00:00,2,49859,0,0.00,2,2,0,2,48848,50000,346,50000,0,0,0,0,0.00,0.00,0.00,0.00
2013-09-29 01:10:00,2,49818,0,0.00,2,2,0,2,48181,50000,546,50000,0,0,0,0,0.00,0.00,0.00,0.00
2013-09-29 01:20:00,2,49988,0,0.00,2,2,0,2,49877,50000,37,50000,0,0,0,0,0.00,0.00,0.00,0.00
2013-09-29 01:30:00,2,50000,0,0.00,2,2,0,2,50000,50000,0,50000,0,0,0,0,0.00,0.00,0.00,0.00
2013-09-29 01:40:00,2,48120,0,0.00,2,2,0,2,41997,50000,2643,50000,0,0,0,0,0.00,0.00,0.00,0.00
2013-09-29 01:50:00,2,48124,0,0.00,2,2,0,2,42137,50000,2638,50000,0,0,0,0,0.00,0.00,0.00,0.00
2013-09-29 02:00:00,2,48954,0,0.00,2,2,0,2,44815,50000,1830,50000,0,0,0,0,0.00,0.00,0.00,0.00
2013-09-29 02:10:00,2,46684,0,0.00,2,2,0,2,38132,50000,4083,49359,0,0,0,0,0.00,0.00,0.00,0.00
2013-09-29 02:20:00,2,48912,0,0.00,2,2,0,2,45781,50000,1357,49380,0,0,0,0,0.00,0.00,0.00,0.00
2013-09-29 02:30:00,2,47358,0,0.00,2,2,0,2,36678,50000,4470,50000,0,0,0,0,0.00,0.00,0.00,0.00
2013-09-29 02:40:00,2,48779,0,0.00,2,2,0,2,41242,50000,2607,50000,0,0,0,0,0.00,0.00,0.00,0.00
2013-09-29 02:50:00,2,48852,0,0.00,2,2,0,2,46785,50000,1242,49365,0,0,0,0,0.00,0.00,0.00,0.00
2013-09-29 03:00:00,2,48700,0,0.00,2,2,0,2,41695,50000,2516,50000,0,0,0,0,0.00,0.00,0.00,0.00
2013-09-29 03:10:00,2,43877,0,0.00,2,2,0,2,37776,50000,4950,42237,0,0,0,0,0.00,0.00,0.00,0.00
2013-09-29 03:20:00,2,47514,0,0.00,2,2,0,2,42259,50000,2597,48098,0,0,0,0,0.00,0.00,0.00,0.00
2013-09-29 03:30:00,2,45872,0,0.00,2,2,0,2,37921,50000,4685,48174,0,0,0,0,0.00,0.00,0.00,0.00
2013-09-29 03:40:00,2,45724,0,0.00,2,2,0,2,41229,50000,3075,45165,0,0,0,0,0.00,0.00,0.00,0.00
2013-09-29 03:50:00,2,45659,0,0.00,2,2,0,2,33959,50000,4855,46215,0,0,0,0,0.00,0.00,0.00,0.00
2013-09-29 04:00:00,2,43332,0,0.00,2,2,0,2,33492,50000,5660,43838,0,0,0,0,0.00,0.00,0.00,0.00
2013-09-29 04:10:00,2,47937,0,0.00,2,2,0,2,33608,50000,4850,50000,0,0,0,0,0.00,0.00,0.00,0.00
2013-09-29 04:20:00,2,45227,0,0.00,2,2,0,2,39606,50000,3819,44368,0,0,0,0,0.00,0.00,0.00,0.00
2013-09-29 04:30:00,2,45465,0,0.00,2,2,0,2,38780,50000,4197,47476,0,0,0,0,0.00,0.00,0.00,0.00
2013-09-29 04:40:00,2,47487,0,0.00,2,2,0,2,40592,50000,3461,49513,0,0,0,0,0.00,0.00,0.00,0.00
2013-09-29 04:50:00,2,49201,0,0.00,2,2,0,2,44487,50000,1736,50000,0,0,0,0,0.00,0.00,0.00,0.00
2013-09-29 05:00:00,2,48578,0,0.00,2,2,0,2,39532,50000,3216,50000,0,0,0,0,0.00,0.00,0.00,0.00
2013-09-29 05:10:00,2,48942,0,0.00,2,2,0,2,43391,50000,2088,50000,0,0,0,0,0.00,0.00,0.00,0.00
2013-09-29 05:20:00,2,48117,0,0.00,2,2,0,2,43242,50000,2343,49580,0,0,0,0,0.00,0.00,0.00,0.00
2013-09-29 05:30:00,2,47054,0,0.00,2,2,0,2,36606,50000,4094,48708,0,0,0,0,0.00,0.00,0.00,0.00
2013-09-29 05:40:00,2,49187,0,0.00,2,2,0,2,46133,50000,1385,50000,0,0,0,0,0.00,0.00,0.00,0.00
2013-09-29 05:50:00,2,48588,0,0.00,2,2,0,2,45247,50000,1562,48958,0,0,0,0,0.00,0.00,0.00,0.00
2013-09-29 06:00:00,2,49481,0,0.00,2,2,0,2,45009,50000,1492,50000,0,0,0,0,0.00,0.00,0.00,0.00
2013-09-29 06:10:00,2,49180,0,0.00,2,2,0,2,45146,50000,1455,50000,0,0,0,0,0.00,0.00,0.00,0.00
2013-09-29 06:20:00,2,49392,0,0.00,2,2,0,2,46705,50000,1144,50000,0,0,0,0,0.00,0.00,0.00,0.00
2013-09-29 06:30:00,2,48819,0,0.00,2,2,0,2,44635,50000,1685,49789,0,0,0,0,0.00,0.00,0.00,0.00
2013-09-29 06:40:00,2,48720,0,0.00,2,2,0,2,43000,50000,2464,50000,0,0,0,0,0.00,0.00,0.00,0.00
2013-09-29 06:50:00,2,44393,0,0.00,2,2,0,2,34314,50000,5132,45106,0,0,0,0,0.00,0.00,0.00,0.00
2013-09-29 07:00:00,2,46012,0,0.00,2,2,0,2,35468,50000,5287,49668,0,0,0,0,0.00,0.00,0.00,0.00
2013-09-29 07:10:00,2,49451,0,0.00,2,2,0,2,46974,50000,929,50000,0,0,0,0,0.00,0.00,0.00,0.00
2013-09-29 07:20:00,2,49053,0,0.00,2,2,0,2,45709,50000,1463,49885,0,0,0,0,0.00,0.00,0.00,0.00
2013-09-29 07:30:00,2,49653,0,0.00,2,2,0,2,47866,50000,666,50000,0,0,0,0,0.00,0.00,0.00,0.00
2013-09-29 07:40:00,2,49520,0,0.00,2,2,0,2,47534,50000,959,50000,0,0,0,0,0.00,0.00,0.00,0.00
2013-09-29 07:50:00,2,50000,0,0.00,2,2,0,2,50000,50000,0,50000,0,0,0,0,0.00,0.00,0.00,0.00
2013-09-29 08:00:00,2,50000,0,0.00,2,2,0,2,50000,50000,0,50000,0,0,0,0,0.00,0.00,0.00,0.00
2013-09-29 08:10:00,2,50000,0,0.00,2,2,0,2,50000,50000,0,50000,0,0,0,0,0.00,0.00,0.00,0.00
2013-09-29 08:20:00,2,50000,0,0.00,2,2,0,2,50000,50000,0,50000,0,0,0,0,0.00,0.00,0.00,0.00
2013-09-29 08:30:00,2,50000,0,0.00,2,2,0,2,50000,50000,0,50000,0,0,0,0,0.00,0.00,0.00,0.00
2013-09-29 08:40:00,2,50000,0,0.00,2,2,0,2,50000,50000,0,50000,0,0,0,0,0.00,0.00,0.00,0.00
2013-09-29 08:50:00,2,50000,0,0.00,2,2,0,2,50000,50000,0,50000,0,0,0,0,0.00,0.00,0.00,0.00
2013-09-29 09:00:00,2,50000,0,0.00,2,2,0,2,50000,50000,0,50000,0,0,0,0,0.00,0.00,0.00,0.00
2013-09-29 09:10:00,2,49607,0,0.00,2,2,0,2,47076,50000,895,50000,0,0,0,0,0.00,0.00,0.00,0.00
2013-09-29 09:20:00,2,50000,0,0.00,2,2,0,2,50000,50000,0,50000,0,0,0,0,0.00,0.00,0.00,0.00
2013-09-29 09:30:00,2,50000,0,0.00,2,2,0,2,50000,50000,0,50000,0,0,0,0,0.00,0.00,0.00,0.00
2013-09-29 09:40:00,2,50000,0,0.00,2,2,0,2,50000,50000,0,50000,0,0,0,0,0.00,0.00,0.00,0.00
2013-09-29 09:50:00,2,50000,0,0.00,2,2,0,2,50000,50000,0,50000,0,0,0,0,0.00,0.00,0.00,0.00
2013-09-29 10:00:00,2,50000,0,0.00,2,2,0,2,50000,50000,0,50000,0,0,0,0,0.00,0.00,0.00,0.00
2013-09-29 10:10:00,2,50000,0,0.00,2,2,0,2,50000,50000,0,50000,0,0,0,0,0.00,0.00,0.00,0.00
2013-09-29 10:20:00,2,50000,0,0.00,2,2,0,2,50000,50000,0,50000,0,0,0,0,0.00,0.00,0.00,0.00
2013-09-29 10:30:00,2,50000,0,0.00,2,2,0,2,50000,50000,0,50000,0,0,0,0,0.00,0.00,0.00,0.00
2013-09-29 10:40:00,2,49944,0,0.00,2,2,0,2,49445,50000,166,50000,0,0,0,0,0.00,0.00,0.00,0.00
2013-09-29 10:50:00,2,50000,0,0.00,2,2,0,2,50000,50000,0,50000,0,0,0,0,0.00,0.00,0.00,0.00
2013-09-29 11:00:00,2,50000,0,0.00,2,2,0,2,50000,50000,0,50000,0,0,0,0,0.00,0.00,0.00,0.00
2013-09-29 11:10:00,2,50000,0,0.00,2,2,0,2,50000,50000,0,50000,0,0,0,0,0.00,0.00,0.00,0.00
2013-09-29 11:20:00,2,50000,0,0.00,2,2,0,2,50000,50000,0,50000,0,0,0,0,0.00,0.00,0.00,0.00
2013-09-29 11:30:00,2,50000,0,0.00,2,2,0,2,50000,50000,0,50000,0,0,0,0,0.00,0.00,0.00,0.00
2013-09-29 11:40:00,2,50000,0,0.00,2,2,0,2,50000,50000,0,50000,0,0,0,0,0.00,0.00,0.00,0.00
2013-09-29 11:50:00,2,49894,0,0.00,2,2,0,2,48936,50000,319,50000,0,0,0,0,0.00,0.00,0.00,0.00
2013-09-29 12:00:00,2,50000,0,0.00,2,2,0,2,50000,50000,0,50000,0,0,0,0,0.00,0.00,0.00,0.00
2013-09-29 12:10:00,2,50000,0,0.00,2,2,0,2,50000,50000,0,50000,0,0,0,0,0.00,0.00,0.00,0.00
2013-09-29 12:20:00,2,50000,0,0.00,2,2,0,2,50000,50000,0,50000,0,0,0,0,0.00,0.00,0.00,0.00
2013-09-29 12:30:00,2,50000,0,0.00,2,2,0,2,50000,50000,0,50000,0,0,0,0,0.00,0.00,0.00,0.00
2013-09-29 12:40:00,2,50000,0,0.00,2,2,0,2,50000,50000,0,50000,0,0,0,0,0.00,0.00,0.00,0.00
2013-09-29 12:50:00,2,50000,0,0.00,2,2,0,2,50000,50000,0,50000,0,0,0,0,0.00,0.00,0.00,0.00
2013-09-29 13:00:00,2,50000,0,0.00,2,2,0,2,50000,50000,0,50000,0,0,0,0,0.00,0.00,0.00,0.00
2013-09-29 13:10:00,2,50000,0,0.00,2,2,0,2,50000,50000,0,50000,0,0,0,0,0.00,0.00,0.00,0.00
2013-09-29 13:20:00,2,50000,0,0.00,2,2,0,2,50000,50000,0,50000,0,0,0,0,0.00,0.00,0.00,0.00
2013-09-29 13:30:00,2,49935,0,0.00,2,2,0,2,49563,50000,139,50000,0,0,0,0,0.00,0.00,0.00,0.00
2013-09-29 13:40:00,2,49900,0,0.00,2,2,0,2,48995,50000,302,50000,0,0,0,0,0.00,0.00,0.00,0.00
2013-09-29 13:50:00,2,50000,0,0.00,2,2,0,2,50000,50000,0,50000,0,0,0,0,0.00,0.00,0.00,0.00
2013-09-29 14:00:00,2,50000,0,0.00,2,2,0,2,50000,50000,0,50000,0,0,0,0,0.00,0.00,0.00,0.00
2013-09-29 14:10:00,2,50000,0,0.00,2,2,0,2,50000,50000,0,50000,0,0,0,0,0.00,0.00,0.00,0.00
2013-09-29 14:20:00,2,50000,0,0.00,2,2,0,2,50000,50000,0,50000,0,0,0,0,0.00,0.00,0.00,0.00
2013-09-29 14:30:00,2,50000,0,0.00,2,2,0,2,50000,50000,0,50000,0,0,0,0,0.00,0.00,0.00,0.00
2013-09-29 14:40:00,2,50000,0,0.00,2,2,0,2,50000,50000,0,50000,0,0,0,0,0.00,0.00,0.00,0.00
2013-09-29 14:50:00,2,49788,0,0.00,2,2,0,2,47875,50000,638,50000,0,0,0,0,0.00,0.00,0.00,0.00
2013-09-29 15:00:00,2,43885,0,0.00,2,2,0,2,33234,50000,5992,45114,0,0,0,0,0.00,0.00,0.00,0.00
2013-09-29 15:10:00,2,23220,8,0.00,2,2,0,2,15674,33322,6258,22562,0,40,16,0,0.00,0.00,0.00,0.00
2013-09-29 15:20:00,2,16755,70,0.00,2,2,0,2,14397,20669,1994,16552,40,77,10,71,0.00,0.00,0.00,0.00
2013-09-29 15:30:00,2,33034,15,0.00,2,2,0,2,22992,49940,9360,28306,0,77,31,0,0.00,0.00,0.00,0.00
2013-09-29 15:40:00,2,47521,0,0.00,2,2,0,2,38052,50000,3775,49302,0,0,0,0,0.00,0.00,0.00,0.00
2013-09-29 15:50:00,2,41580,0,0.00,2,2,0,2,28721,50000,8409,43136,0,0,0,0,0.00,0.00,0.00,0.00
2013-09-29 16:00:00,2,47245,0,0.00,2,2,0,2,41227,50000,2988,47642,0,0,0,0,0.00,0.00,0.00,0.00
2013-09-29 16:10:00,2,49079,0,0.00,2,2,0,2,43194,50000,2040,50000,0,0,0,0,0.00,0.00,0.00,0.00
2013-09-29 16:20:00,2,42371,0,0.00,2,2,0,2,33179,50000,5194,42092,0,0,0,0,0.00,0.00,0.00,0.00
2013-09-29 16:30:00,2,35541,49,0.00,2,2,0,2,25487,48279,6912,36318,0,77,28,56,0.00,0.00,0.00,0.00
2013-09-29 16:40:00,2,46874,52,0.00,2,2,0,2,34117,50000,5153,49247,0,77,34,71,0.00,0.00,0.00,0.00
2013-09-29 16:50:00,2,42618,0,0.00,2,2,0,2,23238,50000,7706,45278,0,0,0,0,0.00,0.00,0.00,0.00
2013-09-29 17:00:00,2,23236,0,0.00,2,2,0,2,16005,38020,5717,21762,0,0,0,0,0.00,0.00,0.00,0.00
2013-09-29 17:10:00,2,16431,28,0.00,2,2,0,2,13691,20323,2182,16014,0,71,35,0,0.00,0.00,0.00,0.00
2013-09-29 17:20:00,2,13847,75,0.00,2,2,0,2,10821,16479,1805,13297,71,77,3,77,0.00,0.00,0.00,0.00
2013-09-29 17:30:00,2,14614,44,0.00,2,2,0,2,10371,20220,2882,13822,0,77,36,71,0.00,0.00,0.00,0.00
2013-09-29 17:40:00,2,12074,25,0.10,2,2,0,2,7477,25459,6688,8979,0,41,20,41,0.00,0.30,0.10,0.08
2013-09-29 17:50:00,2,8321,63,0.10,2,2,0,2,6243,10650,1150,8184,41,77,18,77,0.05,0.25,0.07,0.05
2013-09-29 18:00:00,2,5896,77,0.08,2,2,0,2,4569,7065,952,5986,77,77,0,77,0.05,0.15,0.04,0.08
2013-09-29 18:10:00,2,5738,77,0.08,2,2,0,2,4378,7854,1136,5673,77,77,0,77,0.05,0.15,0.03,0.08
2013-09-29 18:20:00,2,6096,77,0.11,2,2,0,2,4121,8828,1210,5922,77,77,0,77,0.05,0.20,0.06,0.10
2013-09-29 18:30:00,2,3770,77,0.17,2,2,0,2,2636,4515,605,3888,77,77,0,77,0.10,0.25,0.05,0.17
2013-09-29 18:40:00,2,5582,77,0.05,2,2,0,2,4441,7817,1145,5170,77,77,0,77,0.05,0.05,0.00,0.05
2013-09-29 18:50:00,2,12166,76,0.01,2,2,0,2,7483,16825,2751,11926,71,77,2,77,0.00,0.05,0.02,0.00
2013-09-29 19:00:00,2,21025,76,0.00,2,2,0,2,16119,28055,3496,21402,71,77,2,77,0.00,0.00,0.00,0.00
2013-09-29 19:10:00,2,7653,77,0.04,2,2,0,2,6417,11505,1438,7017,77,77,0,77,0.00,0.10,0.03,0.05
2013-09-29 19:20:00,2,14027,75,0.02,2,2,0,2,8680,17514,2519,14600,71,77,3,77,0.00,0.05,0.02,0.00
2013-09-29 19:30:00,2,6194,77,0.14,2,2,0,2,4963,9124,1324,5712,77,77,0,77,0.05,0.30,0.08,0.12
2013-09-29 19:40:00,2,4481,77,0.19,2,2,0,2,3784,5635,524,4418,77,77,0,77,0.05,0.35,0.08,0.17
2013-09-29 19:50:00,2,4347,77,0.34,2,2,0,2,3368,5104,491,4435,77,77,0,77,0.20,0.60,0.11,0.30
2013-09-29 20:00:00,2,3736,77,0.34,2,2,0,2,3146,4873,585,3480,77,77,0,77,0.05,0.90,0.26,0.28
2013-09-29 20:10:00,2,5174,77,0.07,2,2,0,2,3850,6044,625,5237,77,77,0,77,0.00,0.15,0.05,0.05
2013-09-29 20:20:00,2,3918,77,0.11,2,2,0,2,3138,4819,526,3814,77,77,0,77,0.05,0.15,0.03,0.10
2013-09-29 20:30:00,2,3624,77,0.28,2,2,0,2,2736,4270,465,3706,77,77,0,77,0.15,0.45,0.11,0.23
2013-09-29 20:40:00,2,5912,73,0.18,2,2,0,2,4393,8119,1103,5880,41,77,11,77,0.05,0.35,0.10,0.20
2013-09-29 20:50:00,2,7324,41,0.25,2,2,0,2,6193,9181,1083,7108,41,41,0,41,0.10,0.50,0.13,0.23
2013-09-29 21:00:00,2,9372,41,0.15,2,2,0,2,7295,14774,2148,8817,41,41,0,41,0.05,0.25,0.07,0.12
2013-09-29 21:10:00,2,15208,58,0.03,2,2,0,2,11231,23197,4190,12598,41,78,17,56,0.00,0.10,0.03,0.00
2013-09-29 21:20:00,2,38421,78,0.00,2,2,0,2,26528,50000,8100,37826,78,78,0,78,0.00,0.00,0.00,0.00
2013-09-29 21:30:00,2,47913,70,0.00,2,2,0,2,43884,50000,2262,48552,0,78,23,78,0.00,0.00,0.00,0.00
2013-09-29 21:40:00,2,47924,0,0.00,2,2,0,2,39011,50000,3535,50000,0,0,0,0,0.00,0.00,0.00,0.00
2013-09-29 21:50:00,2,49626,0,0.00,2,2,0,2,46263,50000,1121,50000,0,0,0,0,0.00,0.00,0.00,0.00
2013-09-29 22:00:00,2,49964,0,0.00,2,2,0,2,49637,50000,109,50000,0,0,0,0,0.00,0.00,0.00,0.00
2013-09-29 22:10:00,2,50000,0,0.00,2,2,0,2,50000,50000,0,50000,0,0,0,0,0.00,0.00,0.00,0.00
2013-09-29 22:20:00,2,49764,0,0.00,2,2,0,2,47642,50000,707,50000,0,0,0,0,0.00,0.00,0.00,0.00
2013-09-29 22:30:00,2,48854,0,0.00,2,2,0,2,46825,50000,1152,49416,0,0,0,0,0.00,0.00,0.00,0.00
2013-09-29 22:40:00,2,29440,30,0.00,2,2,0,2,17039,46494,11367,27894,0,78,37,0,0.00,0.00,0.00,0.00
2013-09-29 22:50:00,2,9117,78,0.03,2,2,0,2,5127,16985,3794,8608,77,78,0,78,0.00,0.05,0.02,0.05
2013-09-29 23:00:00,2,6560,75,0.06,2,2,0,2,4471,9527,1584,6046,71,77,3,77,0.00,0.15,0.04,0.05
2013-09-29 23:10:00,2,13941,76,0.01,2,2,0,2,9144,21897,3601,13412,71,77,2,77,0.00,0.05,0.02,0.00
2013-09-29 23:20:00,2,14413,76,0.04,2,2,0,2,5157,30668,7940,12724,71,77,2,77,0.00,0.10,0.03,0.05
2013-09-29 23:30:00,2,6262,77,0.07,2,2,0,2,4314,8943,1444,6264,77,77,0,77,0.00,0.15,0.04,0.05
2013-09-29 23:40:00,2,13822,75,0.00,2,2,0,2,9071,22544,3932,12500,71,77,3,77,0.00,0.00,0.00,0.00
2013-09-29 23:50:00,2,34954,46,0.00,2,2,0,2,26906,40705,4219,34836,0,77,37,74,0.00,0.00,0.00,0.00
